Airfield :
LOGIN :

Register | Disclaimer

   EN    FR    IT 

 










Legend :    VFR   Marginal VFR   IFR   Intensive IFR   Very Intensive IFR
Visi :
Ceiling :
>= 8 km
>= 3000ft
5 to 8 km
1000 to 3000 ft
1500m to 5 km
500 to 1000 ft
800 to 1500m
200 to 500 ft
< 800m
< 200 ft
Symbols :   Thunderstorms  Fog  Heavy snow  Heavy precipitations  Wind > 20 kt
SIGMETs :     Misc.  Thunderstorms  Icing  Turbulence  Mountain Waves  Volcanic Ashes






- Airport Elevation : 459 ft
- IATA code : CER


LFRC - Cherbourg / Maupertus

CURRENT METAR :
  • 280400Z AUTO 24022KT 5000 -RA BR OVC006/// ///TCU 11/11 Q1005

EXPIRED METARs :
  • 280330Z AUTO 23018KT 4000 -RA BR OVC005 11/11 Q1006
  • 270300Z AUTO 26011KT 1100 0900 R28/1700N BCFG VV/// 08/08 Q1012
  • 280230Z AUTO 23018KT 5000 RA BR OVC006/// ///CB 11/11 Q1007
  • 280200Z AUTO 24018KT 4700 -RA BR OVC004/// ///TCU 11/11 Q1007
  • 280130Z AUTO 24019G31KT 3900 -RA BR OVC002/// ///TCU 11/11 Q1007

Expired Forecast.



MET'MAP, your aeronautical weather chart ! - Copyright ORBIFLY December 2007 - Disclaimer

ORBIFLY MET'MAP TEAM :

Programming & Development : Alexandra Zaïnal
Concept & original design : Baudouin d'Aumeries
Assistance for programming : Marc-Olivier Méhu
Technical & hardware support : Manuel Goepfert

Contact : metmap@orbifly.com




SOURCES & CREDITS :

   NOAA